Creston, IA

4:37 PM CST on February 24, 2017 (GMT -0600)
Creston Municipal

Weather History for KCSQ - April, 2014

Change the Weather History Date:

Wednesday, April 30, 2014

  Actual Average Record
Temperature  
Mean Temperature 42 °F -  
Max Temperature 44 °F 68 °F 93 °F (1952)
Min Temperature 39 °F 44 °F 28 °F (1990)
Degree Days  
Heating Degree Days 24    
Moisture  
Dew Point 38 °F    
Average Humidity 88    
Maximum Humidity 93    
Minimum Humidity 81    
Precipitation  
Precipitation 0.06 in - - ()
Sea Level Pressure  
Sea Level Pressure 29.84 in    
Wind  
Wind Speed 17 mph (WNW)    
Max Wind Speed 25 mph    
Max Gust Speed 36 mph    
Visibility 9 miles    
Events Rain    
Averages and records for this station are not official NWS values.
T = Trace of Precipitation, MM = Missing Value Source: NWS Daily Summary

Daily Weather History Graph

Daily Weather History Graph

Search for Another Location

Airport or City:

Trip Planner

Search our weather history database for the weather conditions in past years. The results will help you decide how hot, cold, wet, or windy it might be!

Date:

Astronomy

Apr. 30, 2014 Rise Set
Actual Time 6:16 AM CDT 8:13 PM CDT
Civil Twilight 5:46 AM CDT 8:43 PM CDT
Nautical Twilight 5:10 AM CDT 9:19 PM CDT
Astronomical Twilight 4:31 AM CDT 9:59 PM CDT
Moon 7:18 AM CDT (4/30) 9:53 PM CDT (4/30)
Length of Visible Light 14h 56m
Length of Day
13h 56m
New Moon, 2% of the Moon is Illuminated
Apr 30
New Moon
May 6
First Quarter
May 14
Full
May 21
Last Quarter
May 28
New

Hourly Weather History & Observations

Time (CDT) Temp. Windchill Dew Point Humidity Pressure Visibility Wind Dir Wind Speed Gust Speed Precip Events Conditions
12:15 AM 39.2 °F 30.5 °F 35.6 °F 87% 29.79 in 10.0 mi NW 16.1 mph - N/A   Overcast
12:35 AM 39.2 °F 30.5 °F 35.6 °F 87% 29.79 in 10.0 mi NW 16.1 mph - N/A   Overcast
12:55 AM 39.2 °F 30.2 °F 35.6 °F 87% 29.79 in 10.0 mi NW 17.3 mph 23.0 mph N/A   Overcast
1:15 AM 39.2 °F 30.2 °F 35.6 °F 87% 29.79 in 10.0 mi NW 17.3 mph - N/A   Overcast
1:35 AM 39.2 °F 29.8 °F 35.6 °F 87% 29.79 in 10.0 mi NW 18.4 mph - N/A   Overcast
1:55 AM 39.2 °F 30.8 °F 35.6 °F 87% 29.79 in 10.0 mi NW 15.0 mph 20.7 mph N/A   Overcast
2:15 AM 39.2 °F 29.0 °F 33.8 °F 81% 29.80 in 10.0 mi NNW 21.9 mph 35.7 mph N/A   Overcast
2:35 AM 39.2 °F 29.6 °F 33.8 °F 81% 29.80 in 10.0 mi NNW 19.6 mph 25.3 mph N/A   Overcast
2:55 AM 39.2 °F 30.8 °F 33.8 °F 81% 29.80 in 10.0 mi NNW 15.0 mph - N/A   Overcast
3:15 AM 39.2 °F 32.5 °F 33.8 °F 81% 29.80 in 10.0 mi NNW 10.4 mph - N/A   Overcast
3:35 AM 39.2 °F 32.0 °F 33.8 °F 81% 29.80 in - NW 11.5 mph - N/A   Overcast
3:55 AM 39.2 °F 33.6 °F 35.6 °F 87% 29.81 in 10.0 mi WNW 8.1 mph - N/A   Overcast
4:15 AM 39.2 °F 31.6 °F 35.6 °F 87% 29.81 in 10.0 mi NW 12.7 mph - N/A   Overcast
4:35 AM 39.2 °F 32.0 °F 35.6 °F 87% 29.81 in 10.0 mi WNW 11.5 mph - N/A   Overcast
4:55 AM 39.2 °F 31.6 °F 37.4 °F 93% 29.81 in 10.0 mi WNW 12.7 mph - N/A   Mostly Cloudy
5:15 AM 39.2 °F 30.8 °F 37.4 °F 93% 29.81 in 10.0 mi WNW 15.0 mph - N/A   Overcast
5:35 AM 39.2 °F 30.8 °F 37.4 °F 93% 29.81 in 10.0 mi WNW 15.0 mph 21.9 mph N/A   Overcast
5:55 AM 39.2 °F 30.8 °F 37.4 °F 93% 29.82 in 10.0 mi WNW 15.0 mph - N/A   Overcast
6:15 AM 39.2 °F 30.5 °F 37.4 °F 93% 29.81 in 10.0 mi WNW 16.1 mph - N/A   Overcast
6:35 AM 39.2 °F 30.5 °F 37.4 °F 93% 29.82 in 10.0 mi WNW 16.1 mph - N/A   Overcast
6:55 AM 41.0 °F 32.8 °F 37.4 °F 87% 29.81 in 10.0 mi WNW 16.1 mph - N/A   Overcast
7:15 AM 41.0 °F 33.1 °F 37.4 °F 87% 29.81 in 10.0 mi WNW 15.0 mph 20.7 mph N/A   Overcast
7:35 AM 41.0 °F 32.2 °F 37.4 °F 87% 29.81 in 10.0 mi WNW 18.4 mph - N/A   Overcast
7:55 AM 41.0 °F 33.1 °F 39.2 °F 93% 29.81 in 10.0 mi WNW 15.0 mph 20.7 mph N/A   Overcast
8:15 AM 41.0 °F 33.1 °F 39.2 °F 93% 29.81 in 10.0 mi WNW 15.0 mph 23.0 mph N/A   Overcast
8:35 AM 42.8 °F 35.4 °F 39.2 °F 87% 29.81 in 10.0 mi WNW 15.0 mph 21.9 mph N/A   Overcast
8:55 AM 42.8 °F 34.8 °F 39.2 °F 87% 29.82 in 10.0 mi WNW 17.3 mph 24.2 mph N/A   Overcast
9:15 AM 42.8 °F 33.8 °F 39.2 °F 87% 29.82 in 10.0 mi NW 21.9 mph 28.8 mph N/A   Overcast
9:35 AM 42.8 °F 34.5 °F 39.2 °F 87% 29.82 in 9.0 mi WNW 18.4 mph - N/A   Overcast
9:55 AM 42.8 °F 34.0 °F 39.2 °F 87% 29.82 in 7.0 mi NW 20.7 mph 29.9 mph N/A Rain Light Rain
10:15 AM 44.6 °F 36.4 °F 39.2 °F 81% 29.82 in 10.0 mi NW 20.7 mph 28.8 mph N/A Rain Light Rain
10:35 AM 41.0 °F 31.9 °F 37.4 °F 87% 29.83 in 4.0 mi NW 19.6 mph 31.1 mph N/A Rain Light Rain
10:55 AM 41.0 °F 31.9 °F 39.2 °F 93% 29.84 in 3.0 mi NW 19.6 mph - 0.01 in Rain Light Rain
11:15 AM 42.8 °F 35.1 °F 39.2 °F 87% 29.84 in 7.0 mi NW 16.1 mph 23.0 mph N/A Rain Light Rain
11:35 AM 41.0 °F 30.7 °F 37.4 °F 87% 29.84 in 7.0 mi WNW 25.3 mph - N/A Rain Light Rain
11:55 AM 42.8 °F 33.5 °F 39.2 °F 87% 29.85 in 9.0 mi NW 23.0 mph 29.9 mph 0.02 in   Overcast
12:15 PM 42.8 °F 33.5 °F 39.2 °F 87% 29.84 in 10.0 mi WNW 23.0 mph 29.9 mph N/A   Overcast
12:35 PM 42.8 °F 33.3 °F 39.2 °F 87% 29.85 in 6.0 mi WNW 24.2 mph 31.1 mph N/A Rain Light Rain
12:55 PM 42.8 °F 33.5 °F 39.2 °F 87% 29.84 in 10.0 mi WNW 23.0 mph 31.1 mph N/A   Mostly Cloudy
1:15 PM 42.8 °F 33.8 °F 39.2 °F 87% 29.85 in 9.0 mi WNW 21.9 mph 33.4 mph N/A   Overcast
1:35 PM 42.8 °F 33.8 °F 39.2 °F 87% 29.85 in 8.0 mi NW 21.9 mph 28.8 mph N/A Rain Light Rain
1:55 PM 42.8 °F 33.5 °F 39.2 °F 87% 29.86 in 7.0 mi WNW 23.0 mph 29.9 mph N/A Rain Light Rain
2:15 PM 42.8 °F 33.5 °F 39.2 °F 87% 29.86 in 7.0 mi WNW 23.0 mph - N/A Rain Light Rain
2:55 PM 42.8 °F 33.1 °F 39.2 °F 87% 29.86 in 7.0 mi WNW 25.3 mph - N/A   Overcast
3:15 PM 42.8 °F 34.8 °F 39.2 °F 87% 29.87 in 5.0 mi WNW 17.3 mph 26.5 mph N/A   Overcast
3:35 PM 42.8 °F 34.3 °F 39.2 °F 87% 29.86 in 3.0 mi WNW 19.6 mph 27.6 mph N/A Rain Light Rain
3:55 PM 42.8 °F 34.5 °F 39.2 °F 87% 29.87 in 4.0 mi NW 18.4 mph 26.5 mph 0.01 in Rain Light Rain
4:15 PM 42.8 °F 34.0 °F 39.2 °F 87% 29.86 in 9.0 mi WNW 20.7 mph 26.5 mph N/A   Mostly Cloudy
4:35 PM 42.8 °F 34.3 °F 39.2 °F 87% 29.86 in 5.0 mi WNW 19.6 mph - N/A Rain Light Rain
4:55 PM 42.8 °F 34.5 °F 39.2 °F 87% 29.86 in 5.0 mi WNW 18.4 mph 29.9 mph N/A Rain Light Rain
5:15 PM 42.8 °F 34.0 °F 39.2 °F 87% 29.86 in 10.0 mi WNW 20.7 mph 27.6 mph N/A   Overcast
5:35 PM 42.8 °F 34.8 °F 39.2 °F 87% 29.86 in 9.0 mi WNW 17.3 mph 25.3 mph N/A   Overcast
5:55 PM 42.8 °F 34.8 °F 41.0 °F 93% 29.86 in 9.0 mi NW 17.3 mph 24.2 mph N/A   Mostly Cloudy
6:15 PM 42.8 °F 33.8 °F 39.2 °F 87% 29.86 in 10.0 mi NW 21.9 mph - N/A   Mostly Cloudy
6:35 PM 42.8 °F 33.5 °F 39.2 °F 87% 29.86 in 9.0 mi NW 23.0 mph 28.8 mph N/A   Mostly Cloudy
6:55 PM 42.8 °F 34.8 °F 39.2 °F 87% 29.86 in 10.0 mi WNW 17.3 mph 25.3 mph 0.01 in   Mostly Cloudy
7:15 PM 42.8 °F 34.8 °F 39.2 °F 87% 29.86 in 10.0 mi WNW 17.3 mph 23.0 mph N/A   Overcast
7:35 PM 42.8 °F 35.1 °F 39.2 °F 87% 29.87 in 10.0 mi WNW 16.1 mph 24.2 mph N/A   Overcast
7:55 PM 42.8 °F 34.3 °F 39.2 °F 87% 29.87 in 8.0 mi WNW 19.6 mph 25.3 mph N/A Rain Light Rain
8:15 PM 41.0 °F 31.9 °F 39.2 °F 93% 29.87 in 6.0 mi WNW 19.6 mph - N/A Rain Light Rain
8:35 PM 41.0 °F 33.1 °F 39.2 °F 93% 29.88 in 5.0 mi WNW 15.0 mph - N/A Rain Light Rain
8:55 PM 41.0 °F 33.9 °F 39.2 °F 93% 29.88 in 10.0 mi WNW 12.7 mph 21.9 mph N/A   Overcast
9:15 PM 41.0 °F 33.1 °F 39.2 °F 93% 29.88 in 10.0 mi WNW 15.0 mph - N/A   Overcast
9:35 PM 41.0 °F 33.1 °F 39.2 °F 93% 29.88 in 9.0 mi WNW 15.0 mph 21.9 mph N/A Rain Light Rain
9:55 PM 41.0 °F 32.5 °F 39.2 °F 93% 29.89 in 9.0 mi WNW 17.3 mph 23.0 mph N/A Rain Light Rain
10:15 PM 41.0 °F 33.5 °F 39.2 °F 93% 29.89 in 10.0 mi WNW 13.8 mph 20.7 mph N/A   Mostly Cloudy
10:35 PM 41.0 °F 33.5 °F 39.2 °F 93% 29.89 in 8.0 mi WNW 13.8 mph - N/A Rain Light Rain
10:55 PM 41.0 °F 33.1 °F 39.2 °F 93% 29.88 in 9.0 mi WNW 15.0 mph - 0.01 in   Overcast
11:15 PM 41.0 °F 33.5 °F 39.2 °F 93% 29.88 in 10.0 mi WNW 13.8 mph - N/A   Overcast
11:35 PM 41.0 °F 32.2 °F 39.2 °F 93% 29.88 in 10.0 mi WNW 18.4 mph - N/A   Overcast
11:55 PM 41.0 °F 32.5 °F 39.2 °F 93% 29.87 in 10.0 mi WNW 17.3 mph - N/A   Overcast